Regional Weather Roundup
Issued by NWS

Home | Current Version | Previous Version | Text Only | Print | Product List | Glossary Off
Versions: 1 2 3 4 5 6 7 8 9 10 11 12 13 14 15 16 17 18 19 20 21 22 23 24 25 26 27 28 29 30 31 32 33 34 35 36 37 38 39 40 41 42 43 44 45 46 47 48 49 50

000
ASUS43 KFSD 260902
RWRSD

WEATHER ROUNDUP FOR SOUTH DAKOTA
NATIONAL WEATHER SERVICE SIOUX FALLS SD
300 AM CST FRI DEC 26 2014

NOTE: "FAIR" INDICATES FEW OR NO CLOUDS BELOW 12,000 FEET WITH NO
SIGNIFICANT WEATHER AND/OR OBSTRUCTIONS TO VISIBILITY.


SDZ001>005-009-010-012>017-261000-
NORTHWEST AND NORTH CENTRAL SOUTH DAKOTA

CITY           SKY/WX    TMP DP  RH WIND       PRES   REMARKS
BUFFALO          N/A     20  14  77 NW13      29.96R WCI   7
FAITH            N/A     22  15  75 N13       30.03R WCI  10
MOBRIDGE       CLOUDY    26  21  81 N12       30.02R WCI  16
$$

SDZ012>016-024>037-041>051-057-063-072>074-261000-
SOUTHWEST AND SOUTH CENTRAL SOUTH DAKOTA

CITY           SKY/WX    TMP DP  RH WIND       PRES   REMARKS
RAPID CTY ARPT CLOUDY    21  17  84 N16       30.00R WCI   7
PIERRE         CLOUDY    25  21  85 NW16      30.02R WCI  12
CUSTER         CLOUDY    15   8  73 NW3       29.85R
ELLSWORTH AFB  CLOUDY    21  18  88 N10       30.00  WCI   9
PHILIP         CLOUDY    24  18  77 N14       30.04R WCI  12
PINE RIDGE     CLOUDY    20  17  88 N10       30.00R WCI   9
WINNER         CLOUDY    26  21  81 N16       30.00R WCI  14
$$

SDZ004>011-016>023-039-040-261000-
NORTHEAST SOUTH DAKOTA

CITY           SKY/WX    TMP DP  RH WIND       PRES   REMARKS
ABERDEEN       CLOUDY    26  22  84 N13       30.03R WCI  15
WATERTOWN      FLURRIES  24  21  88 N12       29.94R WCI  13
SISSETON         N/A     25  24  96 N16       29.99R WCI  12
$$

SDZ017-020-022-023-036>040-048>070-261000-
SOUTHEAST SOUTH DAKOTA

CITY           SKY/WX    TMP DP  RH WIND       PRES   REMARKS
SIOUX FALLS    CLOUDY    29  26  89 N12       29.91R WCI  19
HURON          FLURRIES  26  23  88 N13       29.98R WCI  15
MITCHELL       CLOUDY    27  24  89 N12       29.98R WCI  17
YANKTON        CLOUDY    28  25  86 N15       29.94R WCI  17
$$

ABBREVIATIONS USED IN REMARKS
   TC - TEMPERATURE IN CELSIUS
  WCI - WIND CHILL INDEX
   HX - HEAT INDEX
  VSB - VISIBILITY



USA.gov is the U.S. government's official web portal to all federal, state and local government web resources and services.